[[{"header":{"parameterUnit":"m.s-1","parameterCategory":1,"la1":30.2991,"la2":30.254,"lo1":-89.0895,"lo2":-89.0444,"dy":0.0017,"dx":0.0017,"nx":28,"ny":28,"refTime":"2023-10-18T09:00:00:Z","depth":0,"parameterNumber":2,"parameterNumberName":"U-component_of_WINDS"},"data":[0,0,0,0,0,0,0,0,0,0,0,0,0,0,0,0,0,0,0,0,0,0,0,0,0,0,0,0,0,0,0,0,0,0,0,0,0,0,0,0,0,0,0,0,0,0,0,0,0,0,0,0,0,0,0,0,0,0,-1.114,-1.1142,0,-1.1275,-1.1277,-1.1278,-1.1361,-1.1362,-1.1362,-1.1363,-1.1499,-1.1502,-1.1506,0,0,0,0,0,0,0,0,0,0,0,0,0,-1.0952,-1.0955,-1.114,-1.1142,-1.1143,-1.1275,-1.1277,-1.1279,-1.1361,-1.1362,-1.1362,-1.1363,-1.1498,-1.1502,-1.1506,0,0,0,0,0,0,0,0,0,0,0,0,0,-1.1055,-1.0956,-1.114,-1.1201,-1.1207,-1.1275,-1.1277,-1.1279,-1.1361,-1.1362,-1.1363,-1.1363,-1.1497,-1.1502,-1.1506,-1.1523,0,0,-1.1521,-1.1523,0,0,0,0,0,0,0,0,-1.1049,-1.1062,-1.119,-1.1196,-1.1204,-1.1302,-1.1261,-1.1361,-1.1361,-1.1303,-1.1363,-1.1364,-1.1433,-1.1443,-1.1467,-1.153,-1.1535,-1.1522,-1.1525,-1.1527,-1.1528,0,0,0,0,0,0,0,-1.1042,-1.1056,-1.1194,-1.1192,-1.12,-1.1221,-1.1236,-1.128,-1.1362,-1.1308,-1.1314,-1.1329,-1.1437,-1.1462,-1.1471,-1.1538,-1.1521,-1.1526,-1.1529,-1.1531,-1.1621,-1.162,0,0,0,0,0,0,-1.1025,-1.105,-1.1189,-1.1198,-1.1127,-1.1223,-1.1241,-1.127,-1.1362,-1.1377,-1.1329,-1.1333,-1.1454,-1.1465,-1.1476,-1.1501,-1.1527,-1.1531,-1.1534,-1.1621,-1.1621,-1.162,0,0,0,0,0,0,-1.1021,-1.1037,-1.1184,-1.1126,-1.1146,-1.1226,-1.1258,-1.1272,-1.1298,-1.1378,-1.1393,-1.1339,-1.1455,-1.1469,-1.1511,-1.1507,-1.1533,-1.1538,-1.1622,-1.1621,-1.162,-1.1552,0,0,0,0,0,0,-1.1015,-1.1035,-1.1042,-1.1125,-1.1149,-1.1217,-1.1258,-1.1275,-1.1306,-1.1313,-1.1392,-1.1406,-1.1456,-1.1503,-1.1516,-1.1514,-1.1541,-1.1623,-1.1622,-1.1621,-1.1555,-1.1549,-1.1544,0,0,0,0,0,-1.1008,-1.1017,-1.1042,-1.1058,-1.116,-1.1216,-1.123,-1.1288,-1.1305,-1.1313,-1.1365,-1.1403,-1.1506,-1.1507,-1.1522,-1.1521,-1.1623,-1.1622,-1.1621,-1.1557,-1.155,-1.1544,0,0,0,0,0,0,-1.0931,-1.1029,-1.1058,-1.1094,-1.1146,-1.123,-1.1242,-1.1279,-1.1327,-1.1331,-1.1401,-1.1418,-1.1453,-1.1492,-1.1491,-1.1543,-1.1569,-1.1571,-1.1516,-1.151,-1.1504,-1.1493,-1.1546,0,0,0,0,0,-1.0918,-1.0956,-1.104,-1.1064,-1.1089,-1.1161,-1.1188,-1.1228,-1.1285,-1.1307,-1.1362,-1.1415,-1.1459,-1.1487,-1.1532,-1.1562,-1.158,-1.1569,-1.1564,-1.1559,-1.1559,-1.1577,-1.1573,-1.1616,-1.1616,-1.1616,0,0,-1.0892,-1.095,-1.097,-1.105,-1.1095,-1.1133,-1.1179,-1.1216,-1.1245,-1.1313,-1.1355,-1.1398,-1.1462,-1.1497,-1.1515,-1.153,-1.1551,-1.1557,-1.1553,-1.1556,-1.1575,-1.1571,-1.1567,-1.1616,-1.1616,-1.1616,0,0,-1.0863,-1.0912,-1.0937,-1.0981,-1.105,-1.1097,-1.1103,-1.1182,-1.1213,-1.1257,-1.1309,-1.1344,-1.1419,-1.1462,-1.1494,-1.1482,-1.1519,-1.1495,-1.1466,-1.1483,-1.1479,-1.1476,-1.1471,-1.1468,-1.1496,-1.1495,-1.1495,0,-1.0821,-1.088,-1.0945,-1.0979,-1.1013,-1.1078,-1.1103,-1.1143,-1.1222,-1.1243,-1.126,-1.1356,-1.1403,-1.1449,-1.1447,-1.1471,-1.1479,-1.1486,-1.1475,-1.1472,-1.1471,-1.1467,-1.1465,-1.1492,-1.1492,-1.1493,-1.1493,0,-1.0825,-1.0865,-1.0878,-1.0953,-1.0988,-1.1018,-1.1086,-1.1114,-1.1152,-1.1198,-1.1242,-1.1302,-1.136,-1.1375,-1.1412,-1.1426,-1.1434,-1.1461,-1.1489,-1.1462,-1.1459,-1.1458,-1.1487,-1.1488,-1.1489,-1.149,0,0,-1.0749,-1.0861,-1.0864,-1.0899,-1.098,-1.1012,-1.1045,-1.1103,-1.1124,-1.1177,-1.1206,-1.1269,-1.1295,-1.1331,-1.1374,-1.1389,-1.1375,-1.1415,-1.1418,-1.1404,-1.1394,-1.137,-1.1368,-1.1401,-1.1401,-1.1401,-1.1388,0,-1.0731,-1.0793,-1.0853,-1.0893,-1.0931,-1.0994,-1.1023,-1.1075,-1.1119,-1.1157,-1.1206,-1.1249,-1.1281,-1.1303,-1.1321,-1.1373,-1.1374,-1.1375,-1.1427,-1.1428,-1.1407,-1.1366,-1.1342,-1.1327,-1.1387,-1.1387,-1.1387,0,-1.0717,-1.0768,-1.0812,-1.0889,-1.0907,-1.0932,-1.099,-1.1026,-1.1087,-1.1118,-1.1159,-1.1205,-1.1242,-1.1267,-1.1319,-1.1318,-1.1344,-1.1373,-1.1374,-1.1379,-1.1404,-1.1369,-1.1323,-1.132,-1.1386,-1.1386,-1.1386,0,-1.0655,-1.0734,-1.0771,-1.08,-1.0891,-1.0907,-1.0945,-1.1007,-1.1038,-1.1089,-1.111,-1.1164,-1.1193,-1.1234,-1.1293,-1.1306,-1.1339,-1.1369,-1.1365,-1.1363,-1.1367,-1.1365,-1.1323,-1.1386,-1.1386,-1.1386,-1.1386,0,-1.0627,-1.0651,-1.0745,-1.0767,-1.0796,-1.0865,-1.0891,-1.0936,-1.099,-1.1022,-1.1081,-1.1109,-1.1187,-1.1225,-1.1272,-1.1307,-1.132,-1.1346,-1.1358,-1.1339,-1.1336,-1.1355,-1.1357,-1.1386,-1.1386,-1.1386,-1.1386,0,-1.0561,-1.0625,-1.0669,-1.0752,-1.0774,-1.0792,-1.0863,-1.0887,-1.0936,-1.0975,-1.0988,-1.1064,-1.1112,-1.1176,-1.1243,-1.1275,-1.1304,-1.1324,-1.1283,-1.1289,-1.1281,-1.128,-1.1248,-1.1246,-1.1312,-1.1311,-1.1311,0,-1.0537,-1.0558,-1.0644,-1.0669,-1.0706,-1.0747,-1.078,-1.0848,-1.088,-1.0951,-1.0966,-1.1019,-1.1064,-1.1137,-1.1198,-1.125,-1.127,-1.1255,-1.1278,-1.1259,-1.1268,-1.1265,-1.1267,-1.1248,-1.1247,-1.1247,-1.1246,0,-1.0488,-1.0519,-1.0563,-1.0619,-1.0656,-1.0703,-1.0753,-1.0771,-1.085,-1.0882,-1.0932,-1.0967,-1.1037,-1.1088,-1.1148,-1.1188,-1.1229,-1.1239,-1.124,-1.122,-1.1195,-1.1207,-1.1265,-1.1238,-1.1239,-1.124,-1.124,-1.124,-1.0442,-1.0462,-1.0526,-1.0574,-1.0619,-1.0664,-1.0691,-1.0743,-1.0786,-1.0848,-1.0887,-1.0934,-1.0996,-1.1081,-1.1119,-1.1158,-1.1174,-1.1177,-1.1177,-1.1176,-1.1169,-1.1191,-1.1169,-1.117,-1.117,-1.117,-1.117,0,-1.0393,-1.0438,-1.0482,-1.0549,-1.0587,-1.0625,-1.0682,-1.0711,-1.0752,-1.0806,-1.085,-1.0907,-1.0958,-1.1023,-1.1078,-1.1096,-1.1116,-1.1108,-1.1106,-1.1114,-1.1152,-1.1144,-1.109,-1.109,-1.109,-1.109,-1.109,-1.109,-1.0373,-1.0409,-1.0448,-1.0508,-1.0553,-1.06,-1.063,-1.0672,-1.0715,-1.0777,-1.0819,-1.0862,-1.092,-1.098,-1.1028,-1.1046,-1.1062,-1.1047,-1.1071,-1.1104,-1.1111,-1.1118,-1.1111,-1.1051,-1.1051,-1.103,-1.1029,-1.1029]},{"header":{"parameterUnit":"m.s-1","parameterCategory":1,"la1":30.2991,"la2":30.254,"lo1":-89.0895,"lo2":-89.0444,"dy":0.0017,"dx":0.0017,"nx":28,"ny":28,"refTime":"2023-10-18T09:00:00:Z","depth":0,"parameterNumber":3,"parameterNumberName":"V-component_of_WINDS"},"data":[0,0,0,0,0,0,0,0,0,0,0,0,0,0,0,0,0,0,0,0,0,0,0,0,0,0,0,0,0,0,0,0,0,0,0,0,0,0,0,0,0,0,0,0,0,0,0,0,0,0,0,0,0,0,0,0,0,0,-2.3444,-2.3444,0,-2.3381,-2.338,-2.3379,-2.3286,-2.3285,-2.3283,-2.3282,-2.3218,-2.3218,-2.3218,0,0,0,0,0,0,0,0,0,0,0,0,0,-2.3485,-2.3485,-2.3444,-2.3444,-2.3443,-2.3381,-2.338,-2.3379,-2.3287,-2.3285,-2.3283,-2.3281,-2.3218,-2.3218,-2.3218,0,0,0,0,0,0,0,0,0,0,0,0,0,-2.345,-2.3485,-2.3444,-2.3389,-2.3383,-2.3381,-2.338,-2.3379,-2.3287,-2.3285,-2.3282,-2.328,-2.3218,-2.3218,-2.3218,-2.3265,0,0,-2.3217,-2.3217,0,0,0,0,0,0,0,0,-2.3452,-2.3448,-2.3398,-2.3393,-2.3387,-2.3339,-2.3371,-2.3341,-2.3288,-2.3324,-2.3282,-2.3279,-2.3261,-2.3257,-2.325,-2.3262,-2.326,-2.3217,-2.3217,-2.3217,-2.3217,0,0,0,0,0,0,0,-2.3454,-2.345,-2.3419,-2.3397,-2.339,-2.3367,-2.336,-2.3365,-2.3307,-2.332,-2.3313,-2.3307,-2.3257,-2.3251,-2.3248,-2.3259,-2.3217,-2.3217,-2.3217,-2.3217,-2.3304,-2.3307,0,0,0,0,0,0,-2.3465,-2.3453,-2.3421,-2.3417,-2.3414,-2.3369,-2.336,-2.3357,-2.3306,-2.3296,-2.3309,-2.3303,-2.3252,-2.3248,-2.3245,-2.3296,-2.3217,-2.3217,-2.3217,-2.3302,-2.3305,-2.3308,0,0,0,0,0,0,-2.3466,-2.3463,-2.3424,-2.3433,-2.3426,-2.337,-2.3368,-2.3357,-2.335,-2.3298,-2.3287,-2.3314,-2.325,-2.3246,-2.326,-2.3293,-2.3217,-2.3216,-2.3299,-2.3303,-2.3306,-2.34,0,0,0,0,0,0,-2.3468,-2.3464,-2.3482,-2.3434,-2.3426,-2.344,-2.337,-2.3357,-2.335,-2.3341,-2.3299,-2.329,-2.3248,-2.3261,-2.326,-2.3291,-2.3216,-2.3296,-2.3301,-2.3305,-2.3394,-2.3406,-2.3417,0,0,0,0,0,-2.3469,-2.3511,-2.3483,-2.348,-2.3447,-2.3442,-2.3438,-2.3388,-2.3353,-2.337,-2.3336,-2.3291,-2.3289,-2.3264,-2.3262,-2.3293,-2.3294,-2.3299,-2.3305,-2.3388,-2.3404,-2.3417,0,0,0,0,0,0,-2.3565,-2.3504,-2.3472,-2.35,-2.3477,-2.3427,-2.3447,-2.3407,-2.3394,-2.3386,-2.3326,-2.3317,-2.3339,-2.3317,-2.329,-2.3335,-2.3285,-2.329,-2.3349,-2.3363,-2.3375,-2.338,-2.3216,0,0,0,0,0,-2.3589,-2.359,-2.3537,-2.3566,-2.3556,-2.3504,-2.35,-2.3463,-2.3437,-2.3428,-2.3395,-2.3372,-2.3365,-2.3363,-2.3355,-2.339,-2.3379,-2.341,-2.3422,-2.3432,-2.3438,-2.3453,-2.3466,-2.3326,-2.3326,-2.3326,0,0,-2.3639,-2.3606,-2.361,-2.3584,-2.3562,-2.3565,-2.3496,-2.3502,-2.3503,-2.3429,-2.344,-2.3415,-2.3385,-2.341,-2.3419,-2.3392,-2.3473,-2.3439,-2.3447,-2.3447,-2.346,-2.3473,-2.3485,-2.333,-2.3329,-2.3328,0,0,-2.3732,-2.3707,-2.3728,-2.3707,-2.3674,-2.3638,-2.3643,-2.3599,-2.3579,-2.3589,-2.3533,-2.3533,-2.3524,-2.3505,-2.3494,-2.3577,-2.3535,-2.3576,-2.3638,-2.3654,-2.3665,-2.3674,-2.3703,-2.3714,-2.3581,-2.3581,-2.3582,0,-2.3798,-2.3799,-2.3744,-2.3753,-2.3743,-2.3674,-2.3695,-2.3677,-2.3644,-2.3638,-2.3608,-2.3594,-2.357,-2.3588,-2.3608,-2.3602,-2.3605,-2.3581,-2.3667,-2.3676,-2.3684,-2.3711,-2.3723,-2.3587,-2.3586,-2.3586,-2.3585,0,-2.3883,-2.3884,-2.3905,-2.3873,-2.3865,-2.3881,-2.3827,-2.3826,-2.379,-2.3757,-2.3768,-2.3735,-2.3718,-2.3719,-2.3685,-2.3733,-2.3717,-2.3678,-2.3626,-2.3704,-2.3728,-2.3738,-2.3594,-2.3592,-2.3591,-2.3589,0,0,-2.4035,-2.3971,-2.398,-2.3964,-2.3921,-2.3922,-2.3933,-2.3915,-2.3915,-2.3893,-2.3901,-2.3894,-2.3857,-2.3845,-2.3807,-2.3821,-2.3887,-2.378,-2.3778,-2.3801,-2.3937,-2.3967,-2.398,-2.3859,-2.386,-2.3862,-2.394,0,-2.412,-2.4135,-2.4085,-2.4113,-2.4113,-2.4047,-2.4056,-2.4031,-2.4001,-2.3996,-2.3962,-2.3958,-2.391,-2.3901,-2.3912,-2.3877,-2.3914,-2.3871,-2.3865,-2.3866,-2.3876,-2.3993,-2.4025,-2.4101,-2.3949,-2.3951,-2.3952,0,-2.4221,-2.4204,-2.4232,-2.4186,-2.4184,-2.4194,-2.4173,-2.4169,-2.4139,-2.4115,-2.4101,-2.4056,-2.4063,-2.4012,-2.4021,-2.3993,-2.3987,-2.3969,-2.3971,-2.3969,-2.3914,-2.3995,-2.4123,-2.4135,-2.3966,-2.3965,-2.3964,0,-2.433,-2.4313,-2.4327,-2.4316,-2.4263,-2.4271,-2.4249,-2.4216,-2.4209,-2.419,-2.4184,-2.4167,-2.4158,-2.4146,-2.4097,-2.4065,-2.4112,-2.4057,-2.4092,-2.4094,-2.4106,-2.4106,-2.4236,-2.4102,-2.4102,-2.4102,-2.4101,0,-2.4429,-2.4449,-2.4375,-2.4384,-2.4404,-2.4345,-2.4367,-2.4338,-2.4309,-2.4311,-2.4252,-2.4255,-2.4191,-2.4186,-2.4148,-2.4161,-2.4157,-2.4138,-2.4128,-2.4144,-2.4147,-2.414,-2.4134,-2.4104,-2.4104,-2.4103,-2.4103,0,-2.4555,-2.4506,-2.4517,-2.4465,-2.4453,-2.447,-2.4425,-2.4431,-2.4396,-2.4399,-2.4396,-2.4341,-2.4333,-2.4282,-2.4263,-2.4237,-2.4264,-2.4243,-2.4274,-2.4267,-2.4305,-2.4303,-2.4436,-2.4451,-2.4307,-2.4309,-2.431,0,-2.4623,-2.4636,-2.4585,-2.4582,-2.4563,-2.4558,-2.4549,-2.4492,-2.4485,-2.445,-2.446,-2.4446,-2.4433,-2.4423,-2.4381,-2.4365,-2.4343,-2.4391,-2.4341,-2.4356,-2.4344,-2.4344,-2.4345,-2.4403,-2.4405,-2.4406,-2.4407,0,-2.4747,-2.4722,-2.4712,-2.4692,-2.4683,-2.4665,-2.4644,-2.4645,-2.458,-2.4576,-2.4566,-2.4555,-2.4534,-2.4522,-2.4498,-2.4475,-2.4431,-2.4423,-2.443,-2.4447,-2.4465,-2.4456,-2.4304,-2.4421,-2.4419,-2.4418,-2.4418,-2.4417,-2.4846,-2.4854,-2.482,-2.4809,-2.4787,-2.4768,-2.477,-2.4734,-2.4725,-2.4703,-2.4669,-2.4664,-2.4631,-2.4595,-2.4575,-2.457,-2.4545,-2.4555,-2.4558,-2.4562,-2.457,-2.4465,-2.4566,-2.4565,-2.4565,-2.4564,-2.4564,0,-2.4968,-2.4942,-2.4933,-2.4904,-2.4896,-2.4853,-2.4827,-2.4823,-2.4819,-2.4791,-2.4779,-2.4767,-2.4753,-2.471,-2.4692,-2.4696,-2.4675,-2.4693,-2.4693,-2.4688,-2.4594,-2.4589,-2.471,-2.471,-2.471,-2.471,-2.471,-2.471,-2.5031,-2.5043,-2.5013,-2.5012,-2.4985,-2.4979,-2.4968,-2.4949,-2.4927,-2.4917,-2.4905,-2.4876,-2.4842,-2.482,-2.4806,-2.4793,-2.4789,-2.4815,-2.4796,-2.4709,-2.4695,-2.4681,-2.4677,-2.4814,-2.4814,-2.489,-2.4891,-2.4891]}]]